Weather reports worldwide

Advertisment
Grantley Adams, Grenada (78954): temperature & dewpoint: 09.12.2019 15:00:00 - 15.12.2019 15:00:00 (AST)Grantley Adams, Grenada (78954): wind speed: 09.12.2019 15:00:00 - 15.12.2019 15:00:00 (AST)Grantley Adams, Grenada (78954): wind direction: 09.12.2019 15:00:00 - 15.12.2019 15:00:00 (AST)Grantley Adams, Grenada (78954): reduced air pressure: 09.12.2019 15:00:00 - 15.12.2019 15:00:00 (AST)Grantley Adams, Grenada (78954): visibility: 09.12.2019 15:00:00 - 15.12.2019 15:00:00 (AST)
Date & Time tt [°C] td [°C] ff [km/h] ff [kn] dd ppp [hPa] vv [km]
15.12.2019 15:00:00 - - - - - - -
15.12.2019 14:00:00 29,0 23,5 35 19 E 1013,0 10
15.12.2019 13:00:00 29,0 23,0 34 18 E - 10
15.12.2019 12:00:00 30,0 24,0 37 20 E - 10
15.12.2019 11:00:00 30,0 23,0 39 21 E - 10
15.12.2019 10:00:00 29,7 22,5 37 20 E 1015,2 10
15.12.2019 09:00:00 - - - - - - -
15.12.2019 08:00:00 27,2 21,9 39 21 E 1014,9 10
15.12.2019 07:00:00 27,0 23,0 28 15 E - 10
15.12.2019 06:00:00 27,0 22,0 34 18 E - 10
15.12.2019 05:00:00 27,0 22,0 35 19 E - 10
15.12.2019 04:00:00 26,0 22,2 34 18 E 1013,2 10
15.12.2019 03:00:00 27,0 22,0 31 17 E - 10
15.12.2019 02:00:00 27,0 22,0 31 17 E - 10
15.12.2019 01:00:00 25,7 21,7 34 18 E 1013,1 10
15.12.2019 00:00:00 27,0 23,0 35 19 E - 10
14.12.2019 23:00:00 27,0 23,0 31 17 E - 10
14.12.2019 22:00:00 26,0 22,4 37 20 E 1014,0 10
14.12.2019 21:00:00 27,0 22,0 37 20 E - 10
14.12.2019 20:00:00 26,5 22,7 31 17 E 1013,6 10
14.12.2019 19:00:00 27,0 23,0 37 20 E - 10
14.12.2019 18:00:00 27,0 23,0 34 18 E - 10
14.12.2019 17:00:00 25,5 23,0 35 19 E 1012,3 10
14.12.2019 16:00:00 29,0 23,0 34 18 E - 10
14.12.2019 15:00:00 30,0 23,0 35 19 E - 10
14.12.2019 14:00:00 29,2 22,0 32 18 E 1012,4 20
14.12.2019 13:00:00 30,0 22,0 35 19 E - 10
14.12.2019 12:00:00 30,0 23,0 35 19 E - 10
14.12.2019 11:00:00 28,5 23,0 37 20 E 1014,3 10
14.12.2019 10:00:00 29,0 24,0 35 19 E - 10
14.12.2019 09:00:00 28,0 22,0 31 17 E - 10
14.12.2019 08:00:00 27,4 23,2 29 16 E 1013,7 10
14.12.2019 07:00:00 27,0 23,0 29 16 E - 10
14.12.2019 06:00:00 26,0 23,0 21 11 E - 10
14.12.2019 05:00:00 24,9 22,2 24 13 E 1011,6 10
14.12.2019 04:00:00 26,0 23,0 24 13 E - 10
14.12.2019 03:00:00 26,0 23,0 22 12 E - 10
14.12.2019 02:00:00 23,2 22,0 11 6 ENE 1011,6 20
14.12.2019 01:00:00 24,0 22,0 13 7 NE - 10
14.12.2019 00:00:00 24,0 22,0 26 14 ENE - 8
13.12.2019 23:00:00 24,9 22,7 24 13 ESE 1012,9 10
13.12.2019 22:00:00 26,0 24,0 22 12 SE - 9
13.12.2019 21:00:00 26,0 23,0 35 19 E - 10
13.12.2019 20:00:00 26,0 23,5 31 17 E 1012,1 8
13.12.2019 19:00:00 26,0 23,0 24 13 E - 10
13.12.2019 18:00:00 26,0 24,0 21 11 E - 10
13.12.2019 17:00:00 25,9 23,0 26 14 E 1011,0 10
13.12.2019 16:00:00 26,0 24,0 24 13 E - 10
13.12.2019 15:00:00 25,0 22,0 29 16 ESE - 4,0
13.12.2019 14:00:00 28,0 24,9 29 16 E 1010,5 10
13.12.2019 13:00:00 25,0 22,0 37 20 SE - 1,0
13.12.2019 12:00:00 30,0 23,0 31 17 E - 10
13.12.2019 11:00:00 31,0 23,0 29 16 ESE - 10
13.12.2019 10:00:00 30,0 22,0 28 15 E - 10
13.12.2019 09:00:00 29,0 23,0 28 15 ESE - 10
13.12.2019 08:00:00 27,5 23,0 26 14 E 1011,9 10
13.12.2019 07:00:00 27,0 22,0 22 12 E - 10
13.12.2019 06:00:00 26,0 22,0 28 15 ESE - 10
13.12.2019 05:00:00 25,5 22,0 31 17 ESE 1010,3 10
13.12.2019 04:00:00 27,0 22,0 31 17 ESE - 10
13.12.2019 03:00:00 27,0 22,0 29 16 E - 10
13.12.2019 02:00:00 26,0 22,2 29 16 E 1010,2 20
13.12.2019 01:00:00 27,0 22,0 31 17 E - 10
13.12.2019 00:00:00 27,0 22,0 34 18 E - 10
12.12.2019 23:00:00 24,9 22,7 31 17 E 1011,6 10
12.12.2019 22:00:00 25,0 22,0 24 13 E - 10
12.12.2019 21:00:00 25,0 23,0 16 9 ENE - 10
12.12.2019 20:00:00 23,5 22,4 24 13 E 1011,3 10
12.12.2019 19:00:00 26,0 22,0 26 14 E - 10
12.12.2019 18:00:00 26,0 23,0 29 16 ESE - 10
12.12.2019 17:00:00 24,0 21,7 26 14 E 1010,0 10
12.12.2019 16:00:00 28,0 22,0 29 16 E - 10
12.12.2019 15:00:00 28,0 22,0 34 18 E - 10
12.12.2019 14:00:00 28,0 21,9 29 16 E 1009,9 10
12.12.2019 13:00:00 29,0 22,0 29 16 E - 10
12.12.2019 12:00:00 30,0 22,0 29 16 E - 10
12.12.2019 11:00:00 28,0 20,7 31 17 E 1011,6 10
12.12.2019 10:00:00 29,0 22,0 31 17 E - 10
12.12.2019 09:00:00 28,0 22,0 29 16 E - 10
12.12.2019 08:00:00 23,5 21,5 25 14 E 1012,3 18
12.12.2019 07:00:00 26,0 22,0 29 16 E - 10
12.12.2019 06:00:00 27,0 22,0 29 16 E - 10
12.12.2019 05:00:00 26,2 21,2 31 17 E 1009,9 10
12.12.2019 04:00:00 26,0 21,0 29 16 E - 10
12.12.2019 03:00:00 27,0 21,0 29 16 E - 10
12.12.2019 02:00:00 26,5 21,5 28 15 E 1010,2 10
12.12.2019 01:00:00 27,0 21,0 28 15 E - 10
12.12.2019 00:00:00 27,0 22,0 29 16 E - 10
11.12.2019 23:00:00 25,2 22,2 21 11 E 1011,9 10
11.12.2019 22:00:00 26,0 21,0 41 22 E - 10
11.12.2019 21:00:00 27,0 21,0 31 17 E - 10
11.12.2019 20:00:00 27,0 21,5 28 15 E 1012,1 10
11.12.2019 19:00:00 28,0 22,0 29 16 E - 10
11.12.2019 18:00:00 27,0 21,0 31 17 E - 10
11.12.2019 17:00:00 27,0 20,9 31 17 E 1011,0 10
11.12.2019 16:00:00 28,0 22,0 34 18 E - 10
11.12.2019 15:00:00 29,0 22,0 31 17 E - 10
11.12.2019 14:00:00 28,4 21,4 36 19 E 1011,2 18
11.12.2019 13:00:00 29,0 22,0 37 20 E - 10
11.12.2019 12:00:00 29,0 22,0 35 19 E - 10
11.12.2019 11:00:00 27,5 20,7 39 21 E 1013,6 10
11.12.2019 10:00:00 27,0 22,0 41 22 E - 10
11.12.2019 09:00:00 28,0 22,0 42 23 E - 10
11.12.2019 08:00:00 27,4 21,2 39 21 E 1013,5 10
11.12.2019 07:00:00 27,0 22,0 37 20 E - 10
11.12.2019 06:00:00 27,0 22,0 39 21 E - 10
11.12.2019 05:00:00 26,2 21,9 32 18 E 1011,5 20
11.12.2019 04:00:00 28,0 22,0 39 21 E - 10
11.12.2019 03:00:00 27,0 22,0 35 19 E - 10
11.12.2019 02:00:00 26,7 21,7 42 23 E 1011,7 10
11.12.2019 01:00:00 27,0 22,0 42 23 E - 10
11.12.2019 00:00:00 28,0 22,0 37 20 E - 10
10.12.2019 23:00:00 26,9 20,7 39 21 E 1013,4 10
10.12.2019 22:00:00 27,0 21,0 41 22 E - 10
10.12.2019 21:00:00 27,0 21,0 39 21 E - 10
10.12.2019 20:00:00 25,5 23,2 31 17 E 1013,1 10
10.12.2019 19:00:00 26,0 23,0 46 25 ESE - 10
10.12.2019 18:00:00 28,0 22,0 39 21 E - 10
10.12.2019 17:00:00 27,2 22,0 37 20 E 1011,8 10
10.12.2019 16:00:00 29,0 22,0 39 21 E - 10
10.12.2019 15:00:00 30,0 23,0 39 21 E - 10
10.12.2019 14:00:00 29,7 22,0 39 21 E 1012,0 10
10.12.2019 13:00:00 30,0 22,0 42 23 E - 10
10.12.2019 12:00:00 31,0 22,0 42 23 E - 10
10.12.2019 11:00:00 29,9 21,0 42 23 E 1014,1 10
10.12.2019 10:00:00 31,0 22,0 42 23 E - 10
10.12.2019 09:00:00 30,0 22,0 41 22 E - 10
10.12.2019 08:00:00 28,2 19,0 44 24 E 1013,2 10
10.12.2019 07:00:00 28,0 22,0 46 25 E - 10
10.12.2019 06:00:00 27,0 22,0 34 18 E - 10
10.12.2019 05:00:00 26,2 20,0 42 23 E 1012,5 10
10.12.2019 04:00:00 27,0 20,0 42 23 E - 10
10.12.2019 03:00:00 27,0 22,0 41 22 E - 10
10.12.2019 02:00:00 27,0 21,0 39 21 E - 10
10.12.2019 01:00:00 26,5 21,2 34 18 E 1012,9 10
10.12.2019 00:00:00 27,0 21,0 35 19 E - 10
09.12.2019 23:00:00 27,0 21,0 35 19 E - 10
09.12.2019 22:00:00 26,5 20,5 41 22 E 1014,0 10
09.12.2019 21:00:00 28,0 22,0 34 18 E - 10
09.12.2019 20:00:00 28,0 22,0 41 22 E - 10
09.12.2019 19:00:00 27,2 22,2 34 18 E 1013,7 10
09.12.2019 18:00:00 27,0 22,0 29 16 E - 10
09.12.2019 17:00:00 27,7 20,2 29 16 E 1012,3 10
09.12.2019 16:00:00 29,0 21,0 34 18 E - 10
09.12.2019 15:00:00 30,0 20,0 35 19 E - 10

tt = temperature
td = dewpoint
ff = wind speed
dd = wind direction
ppp = reduced air pressure
vv = visibility

Next stations